| time (UTC) | temp F | wind direction | speed MPH | gust MPH | rain 1hr in | rain 24hr in | rain mn in | humidity % | barometer mb |
| 20260510211603 | 68 | 233 | 1.0 | 6.0 | 0.00 | 0.04 | 0.00 | 63 | 1013.0 |
| 20260510210603 | 68 | 234 | 0.0 | 8.0 | 0.00 | 0.07 | 0.00 | 63 | 1012.8 |
| 20260510205603 | 68 | 242 | 1.0 | 8.0 | 0.00 | 0.09 | 0.00 | 60 | 1012.8 |
| 20260510204602 | 69 | 250 | 2.0 | 11.0 | 0.00 | 0.11 | 0.00 | 61 | 1012.6 |
| 20260510203604 | 69 | 240 | 1.0 | 12.0 | 0.00 | 0.15 | 0.00 | 59 | 1012.4 |
| 20260510202603 | 69 | 255 | 7.0 | 14.0 | 0.00 | 0.18 | 0.00 | 60 | 1012.5 |
| 20260510201624 | 69 | 264 | 4.0 | 12.0 | 0.00 | 0.19 | 0.00 | 62 | 1012.5 |
| 20260510200603 | 70 | 232 | 2.0 | 11.0 | 0.00 | 0.21 | 0.00 | 62 | 1012.3 |
| 20260510195624 | 70 | 270 | 2.0 | 9.0 | 0.00 | 0.21 | 0.00 | 61 | 1012.4 |
| 20260510194603 | 70 | 287 | 0.0 | 10.0 | 0.00 | 0.25 | 0.00 | 63 | 1012.5 |
| 20260510193603 | 71 | 274 | 4.0 | 10.0 | 0.00 | 0.27 | 0.00 | 61 | 1012.7 |
| 20260510192603 | 71 | 213 | 2.0 | 11.0 | 0.00 | 0.28 | 0.00 | 63 | 1012.6 |
| 20260510191624 | 71 | 243 | 5.0 | 10.0 | 0.00 | 0.28 | 0.00 | 64 | 1012.7 |
| 20260510190603 | 71 | 246 | 2.0 | 12.0 | 0.00 | 0.28 | 0.00 | 63 | 1012.6 |
| 20260510185603 | 71 | 236 | 4.0 | 13.0 | 0.00 | 0.28 | 0.00 | 62 | 1012.6 |
| 20260510184603 | 71 | 250 | 2.0 | 12.0 | 0.00 | 0.28 | 0.00 | 62 | 1012.7 |
| 20260510183603 | 72 | 285 | 2.0 | 11.0 | 0.00 | 0.29 | 0.00 | 62 | 1012.8 |
| 20260510182603 | 72 | 246 | 5.0 | 11.0 | 0.00 | 0.29 | 0.00 | 61 | 1012.8 |
| 20260510181604 | 72 | 229 | 4.0 | 10.0 | 0.00 | 0.30 | 0.00 | 63 | 1012.6 |
| 20260510180603 | 72 | 206 | 1.0 | 5.0 | 0.00 | 0.30 | 0.00 | 70 | 1012.5 |
| 20260510175624 | 72 | 201 | 2.0 | 7.0 | 0.00 | 0.30 | 0.00 | 67 | 1012.5 |
| 20260510174603 | 72 | 222 | 0.0 | 6.0 | 0.00 | 0.30 | 0.00 | 70 | 1012.4 |
| 20260510173603 | 71 | 223 | 0.0 | 7.0 | 0.00 | 0.30 | 0.00 | 70 | 1012.3 |
| 20260510172603 | 71 | 223 | 0.0 | 8.0 | 0.00 | 0.30 | 0.00 | 70 | 1012.3 |
| 20260510171602 | 71 | 219 | 0.0 | 4.0 | 0.00 | 0.30 | 0.00 | 73 | 1012.4 |
| 20260510170603 | 70 | 220 | 1.0 | 7.0 | 0.00 | 0.30 | 0.00 | 73 | 1012.5 |
| 20260510165648 | 70 | 226 | 2.0 | 7.0 | 0.00 | 0.30 | 0.00 | 72 | 1012.6 |
| 20260510164603 | 69 | 236 | 1.0 | 9.0 | 0.00 | 0.30 | 0.00 | 78 | 1012.7 |
| 20260510163603 | 69 | 223 | 1.0 | 6.0 | 0.00 | 0.30 | 0.00 | 74 | 1012.8 |
| 20260510162603 | 68 | 225 | 4.0 | 11.0 | 0.00 | 0.30 | 0.00 | 79 | 1012.8 |
| 20260510161603 | 68 | 220 | 2.0 | 9.0 | 0.00 | 0.30 | 0.00 | 76 | 1013.0 |
| 20260510160602 | 68 | 209 | 4.0 | 8.0 | 0.00 | 0.30 | 0.00 | 78 | 1013.0 |
| 20260510155625 | 67 | 206 | 1.0 | 7.0 | 0.00 | 0.30 | 0.00 | 79 | 1012.9 |
| 20260510154603 | 66 | 208 | 0.0 | 4.0 | 0.00 | 0.30 | 0.00 | 78 | 1012.9 |
| 20260510153603 | 65 | 216 | 1.0 | 6.0 | 0.00 | 0.30 | 0.00 | 81 | 1013.1 |
| 20260510152602 | 65 | 227 | 0.0 | 5.0 | 0.00 | 0.30 | 0.00 | 80 | 1013.1 |
| 20260510151603 | 64 | 223 | 0.0 | 5.0 | 0.00 | 0.30 | 0.00 | 80 | 1013.1 |
| 20260510150603 | 63 | 220 | 0.0 | 4.0 | 0.00 | 0.30 | 0.00 | 84 | 1013.1 |
| 20260510145603 | 62 | 221 | 0.0 | 8.0 | 0.00 | 0.30 | 0.00 | 85 | 1013.3 |
| 20260510144603 | 62 | 218 | 1.0 | 5.0 | 0.00 | 0.30 | 0.00 | 89 | 1013.4 |
| 20260510143603 | 60 | 222 | 1.0 | 4.0 | 0.00 | 0.30 | 0.00 | 90 | 1013.3 |
| 20260510142624 | 59 | 203 | 0.0 | 1.0 | 0.00 | 0.30 | 0.00 | 94 | 1013.4 |
| 20260510141603 | 58 | 167 | 0.0 | 5.0 | 0.00 | 0.30 | 0.00 | 96 | 1013.3 |
| 20260510140624 | 57 | 210 | 0.0 | 0.0 | 0.00 | 0.30 | 0.00 | 97 | 1013.3 |
| 20260510135602 | 56 | 210 | 0.0 | 0.0 | 0.00 | 0.30 | 0.00 | 97 | 1013.3 |
| 20260510134603 | 55 | 210 | 0.0 | 0.0 | 0.00 | 0.30 | 0.00 | 98 | 1013.3 |
| 20260510133603 | 55 | 210 | 0.0 | 0.0 | 0.00 | 0.30 | 0.00 | 98 | 1013.3 |
| 20260510132624 | 54 | 210 | 0.0 | 0.0 | 0.00 | 0.30 | 0.00 | 98 | 1013.3 |
| 20260510131602 | 54 | 210 | 0.0 | 0.0 | 0.00 | 0.30 | 0.00 | 97 | 1013.3 |
| 20260510130603 | 54 | 229 | 0.0 | 0.0 | 0.00 | 0.30 | 0.00 | 97 | 1013.0 |
| 20260510125602 | 54 | 229 | 0.0 | 0.0 | 0.00 | 0.30 | 0.00 | 98 | 1012.9 |
| 20260510124603 | 53 | 229 | 0.0 | 0.0 | 0.00 | 0.30 | 0.00 | 98 | 1012.9 |
| 20260510123603 | 53 | 229 | 0.0 | 0.0 | 0.00 | 0.30 | 0.00 | 98 | 1012.9 |
| 20260510122603 | 53 | 229 | 0.0 | 0.0 | 0.00 | 0.30 | 0.00 | 97 | 1012.9 |
| 20260510121603 | 52 | 229 | 0.0 | 0.0 | 0.00 | 0.30 | 0.00 | 97 | 1012.9 |
| 20260510120604 | 52 | 229 | 0.0 | 0.0 | 0.00 | 0.30 | 0.00 | 97 | 1012.8 |
| 20260510115602 | 52 | 229 | 0.0 | 0.0 | 0.00 | 0.30 | 0.00 | 97 | 1012.4 |
| 20260510114603 | 52 | 229 | 0.0 | 0.0 | 0.00 | 0.30 | 0.00 | 97 | 1012.2 |
| 20260510113603 | 52 | 229 | 0.0 | 0.0 | 0.00 | 0.30 | 0.00 | 98 | 1012.4 |
| 20260510112603 | 52 | 229 | 0.0 | 0.0 | 0.00 | 0.30 | 0.00 | 97 | 1012.3 |
| 20260510111603 | 52 | 229 | 0.0 | 0.0 | 0.00 | 0.30 | 0.00 | 98 | 1012.2 |
| 20260510110602 | 51 | 229 | 0.0 | 0.0 | 0.00 | 0.30 | 0.00 | 97 | 1012.1 |
| 20260510105603 | 51 | 229 | 0.0 | 0.0 | 0.00 | 0.30 | 0.00 | 97 | 1012.0 |
| 20260510104602 | 51 | 229 | 0.0 | 0.0 | 0.00 | 0.30 | 0.00 | 97 | 1011.7 |
| 20260510103603 | 51 | 229 | 0.0 | 0.0 | 0.00 | 0.30 | 0.00 | 97 | 1011.7 |
| 20260510102602 | 51 | 229 | 0.0 | 0.0 | 0.00 | 0.30 | 0.00 | 97 | 1011.8 |
| 20260510101603 | 51 | 229 | 0.0 | 0.0 | 0.00 | 0.30 | 0.00 | 97 | 1011.8 |
| 20260510100602 | 51 | 229 | 0.0 | 0.0 | 0.00 | 0.30 | 0.00 | 97 | 1011.8 |
| 20260510095645 | 51 | 229 | 0.0 | 0.0 | 0.00 | 0.30 | 0.00 | 97 | 1011.9 |
| 20260510094624 | 51 | 229 | 0.0 | 0.0 | 0.00 | 0.30 | 0.00 | 97 | 1011.9 |
| 20260510093603 | 51 | 229 | 0.0 | 0.0 | 0.00 | 0.30 | 0.00 | 97 | 1011.8 |
| 20260510092603 | 51 | 229 | 0.0 | 0.0 | 0.00 | 0.30 | 0.00 | 97 | 1011.6 |
| 20260510091603 | 51 | 229 | 0.0 | 0.0 | 0.00 | 0.30 | 0.00 | 97 | 1011.8 |
| 20260510090603 | 51 | 229 | 0.0 | 0.0 | 0.00 | 0.30 | 0.00 | 97 | 1012.0 |
| 20260510085603 | 51 | 229 | 0.0 | 0.0 | 0.00 | 0.30 | 0.00 | 97 | 1011.9 |
| 20260510084603 | 51 | 229 | 0.0 | 0.0 | 0.00 | 0.30 | 0.00 | 97 | 1012.0 |
| 20260510083602 | 51 | 229 | 0.0 | 0.0 | 0.00 | 0.30 | 0.00 | 97 | 1012.1 |
| 20260510082604 | 51 | 229 | 0.0 | 0.0 | 0.00 | 0.30 | 0.00 | 97 | 1012.2 |
| 20260510081604 | 51 | 229 | 0.0 | 0.0 | 0.00 | 0.30 | 0.00 | 97 | 1012.1 |
| 20260510080604 | 51 | 229 | 0.0 | 0.0 | 0.00 | 0.30 | 0.00 | 97 | 1012.1 |
| 20260510075603 | 51 | 229 | 0.0 | 4.0 | 0.00 | 0.30 | 0.00 | 97 | 1011.9 |
| 20260510074625 | 51 | 229 | 0.0 | 0.0 | 0.00 | 0.30 | 0.00 | 97 | 1011.7 |
| 20260510073603 | 51 | 229 | 0.0 | 0.0 | 0.00 | 0.30 | 0.00 | 97 | 1011.2 |
| 20260510072604 | 51 | 229 | 0.0 | 0.0 | 0.00 | 0.30 | 0.00 | 97 | 1011.1 |
| 20260510071604 | 51 | 229 | 0.0 | 0.0 | 0.00 | 0.30 | 0.00 | 97 | 1011.3 |
| 20260510070625 | 51 | 229 | 0.0 | 0.0 | 0.00 | 0.30 | 0.00 | 97 | 1011.3 |
| 20260510065604 | 51 | 229 | 0.0 | 0.0 | 0.00 | 0.30 | 0.00 | 96 | 1011.3 |
| 20260510064604 | 51 | 229 | 0.0 | 0.0 | 0.00 | 0.30 | 0.00 | 97 | 1011.2 |
| 20260510063603 | 51 | 229 | 0.0 | 0.0 | 0.00 | 0.30 | 0.00 | 97 | 1011.3 |
| 20260510062625 | 51 | 229 | 0.0 | 0.0 | 0.00 | 0.30 | 0.00 | 97 | 1011.5 |
| 20260510061604 | 51 | 229 | 0.0 | 0.0 | 0.00 | 0.30 | 0.00 | 97 | 1011.5 |
| 20260510060625 | 51 | 229 | 0.0 | 0.0 | 0.00 | 0.30 | 0.00 | 97 | 1011.4 |
| 20260510055604 | 51 | 229 | 0.0 | 0.0 | 0.00 | 0.30 | 0.00 | 97 | 1011.2 |
| 20260510054604 | 51 | 229 | 0.0 | 0.0 | 0.00 | 0.30 | 0.00 | 97 | 1011.1 |
| 20260510053604 | 51 | 229 | 0.0 | 0.0 | 0.00 | 0.30 | 0.00 | 97 | 1011.2 |
| 20260510052604 | 51 | 229 | 0.0 | 0.0 | 0.00 | 0.30 | 0.00 | 97 | 1011.1 |
| 20260510051604 | 51 | 229 | 0.0 | 0.0 | 0.00 | 0.30 | 0.00 | 97 | 1011.1 |
| 20260510050604 | 51 | 229 | 0.0 | 0.0 | 0.00 | 0.30 | 0.00 | 97 | 1011.2 |
| 20260510045625 | 51 | 229 | 0.0 | 0.0 | 0.00 | 0.30 | 0.00 | 97 | 1011.3 |
| 20260510044603 | 51 | 229 | 0.0 | 0.0 | 0.00 | 0.30 | 0.00 | 97 | 1011.3 |
| 20260510043604 | 51 | 229 | 0.0 | 0.0 | 0.00 | 0.30 | 0.00 | 96 | 1011.4 |
| 20260510042603 | 51 | 229 | 0.0 | 0.0 | 0.00 | 0.30 | 0.00 | 97 | 1011.2 |
| 20260510041604 | 51 | 229 | 0.0 | 0.0 | 0.00 | 0.30 | 0.00 | 96 | 1011.4 |
| 20260510040603 | 51 | 229 | 0.0 | 0.0 | 0.00 | 0.30 | 0.00 | 96 | 1011.4 |
| 20260510035604 | 51 | 229 | 0.0 | 0.0 | 0.00 | 0.30 | 0.30 | 96 | 1011.3 |
| 20260510034604 | 51 | 229 | 0.0 | 0.0 | 0.00 | 0.30 | 0.30 | 96 | 1011.2 |
| 20260510033604 | 51 | 229 | 0.0 | 0.0 | 0.00 | 0.30 | 0.30 | 96 | 1011.2 |
| 20260510032624 | 51 | 229 | 0.0 | 0.0 | 0.00 | 0.30 | 0.30 | 96 | 1011.1 |
| 20260510031604 | 51 | 229 | 0.0 | 0.0 | 0.00 | 0.30 | 0.30 | 96 | 1010.9 |
| 20260510030603 | 51 | 229 | 0.0 | 0.0 | 0.00 | 0.30 | 0.30 | 96 | 1010.8 |
| 20260510025604 | 51 | 229 | 0.0 | 0.0 | 0.00 | 0.30 | 0.30 | 96 | 1011.0 |
| 20260510024646 | 51 | 229 | 0.0 | 0.0 | 0.00 | 0.30 | 0.30 | 96 | 1011.1 |
| 20260510023604 | 51 | 229 | 0.0 | 0.0 | 0.00 | 0.30 | 0.30 | 96 | 1011.2 |
| 20260510022624 | 51 | 229 | 0.0 | 0.0 | 0.00 | 0.30 | 0.30 | 96 | 1011.0 |
| 20260510021604 | 51 | 229 | 0.0 | 0.0 | 0.00 | 0.30 | 0.30 | 96 | 1011.1 |
| 20260510020603 | 51 | 229 | 0.0 | 0.0 | 0.00 | 0.30 | 0.30 | 96 | 1011.0 |
| 20260510015604 | 51 | 229 | 0.0 | 0.0 | 0.00 | 0.30 | 0.30 | 96 | 1011.0 |
| 20260510014603 | 51 | 229 | 0.0 | 0.0 | 0.00 | 0.30 | 0.30 | 96 | 1011.0 |
| 20260510013604 | 51 | 229 | 0.0 | 0.0 | 0.00 | 0.30 | 0.30 | 96 | 1011.2 |
| 20260510012603 | 52 | 229 | 0.0 | 0.0 | 0.00 | 0.30 | 0.30 | 96 | 1010.9 |
| 20260510011604 | 52 | 229 | 0.0 | 0.0 | 0.00 | 0.30 | 0.30 | 96 | 1010.9 |
| 20260510010625 | 52 | 229 | 0.0 | 0.0 | 0.00 | 0.30 | 0.30 | 95 | 1010.7 |
| 20260510005604 | 52 | 229 | 0.0 | 0.0 | 0.00 | 0.30 | 0.30 | 95 | 1010.5 |
| 20260510004624 | 52 | 229 | 0.0 | 0.0 | 0.00 | 0.30 | 0.30 | 95 | 1010.5 |
| 20260510003604 | 53 | 229 | 0.0 | 0.0 | 0.00 | 0.30 | 0.30 | 95 | 1010.5 |
| 20260510002603 | 53 | 229 | 0.0 | 0.0 | 0.00 | 0.30 | 0.30 | 95 | 1010.4 |
| 20260510001604 | 54 | 229 | 0.0 | 0.0 | 0.00 | 0.30 | 0.30 | 95 | 1010.5 |
| 20260510000604 | 54 | 229 | 0.0 | 0.0 | 0.00 | 0.30 | 0.30 | 95 | 1010.3 |
| 20260509235604 | 54 | 229 | 0.0 | 0.0 | 0.00 | 0.30 | 0.30 | 95 | 1010.3 |
| 20260509234604 | 54 | 229 | 0.0 | 0.0 | 0.00 | 0.30 | 0.30 | 95 | 1010.3 |
| 20260509233603 | 54 | 229 | 0.0 | 0.0 | 0.00 | 0.30 | 0.30 | 95 | 1010.2 |
| 20260509232604 | 55 | 229 | 0.0 | 0.0 | 0.00 | 0.30 | 0.30 | 95 | 1010.1 |
| 20260509231604 | 55 | 229 | 0.0 | 0.0 | 0.00 | 0.30 | 0.30 | 95 | 1010.1 |
| 20260509230604 | 55 | 229 | 0.0 | 0.0 | 0.00 | 0.30 | 0.30 | 95 | 1010.0 |
| 20260509225603 | 55 | 229 | 0.0 | 0.0 | 0.00 | 0.30 | 0.30 | 95 | 1010.2 |
| 20260509224604 | 55 | 229 | 0.0 | 0.0 | 0.00 | 0.30 | 0.30 | 96 | 1010.1 |
| 20260509223603 | 55 | 229 | 0.0 | 0.0 | 0.00 | 0.30 | 0.30 | 95 | 1010.3 |
| 20260509222603 | 55 | 229 | 0.0 | 0.0 | 0.00 | 0.30 | 0.30 | 95 | 1010.4 |
| 20260509221603 | 55 | 229 | 0.0 | 5.0 | 0.00 | 0.30 | 0.30 | 95 | 1010.2 |
| 20260509220604 | 55 | 229 | 0.0 | 0.0 | 0.00 | 0.30 | 0.30 | 95 | 1010.4 |
| 20260509215603 | 54 | 229 | 0.0 | 0.0 | 0.08 | 0.30 | 0.30 | 95 | 1010.3 |
| 20260509214603 | 54 | 229 | 0.0 | 0.0 | 0.08 | 0.30 | 0.30 | 95 | 1010.3 |
| 20260509213603 | 54 | 229 | 0.0 | 0.0 | 0.08 | 0.30 | 0.30 | 95 | 1010.6 |
| 20260509212604 | 54 | 229 | 0.0 | 0.0 | 0.06 | 0.28 | 0.28 | 94 | 1010.7 |